Location: Spring Creek
(38.2870°N, 100.2160°W)
Time: 03:11:08
(UTC+00:00)

Cosmos 1980 Rocket - Pass Details

Date: 08 May 2021
Orbit: 831 x 848 km, 71.0° (Epoch: 22 June)

Event Time Altitude Azimuth Distance (km) Brightness Sun altitude
Exits shadow 10:06:56 15° 191° (SSW) 2,103 3.8 -15.9°
Maximum altitude 10:11:36 72° 110° (ESE) 891 2.4 -15.2°
Drops below altitude 10° 10:17:15 10° 27° (NNE) 2,470 5.7 -14.3°
Sets 10:19:42 0° 25° (NNE) 3,407 6.5 -13.9°
